TimeCST,TemperatureF,Dew PointF,Humidity,Sea Level PressureIn,VisibilityMPH,Wind Direction,Wind SpeedMPH,Gust SpeedMPH,PrecipitationIn,Events,Conditions,WindDirDegrees,DateUTC
12:14 AM,37.4,26.6,65,29.71,10.0,South,16.1,23.0,N/A,,Scattered Clouds,170,2012-12-06 06:14:00
12:33 AM,37.4,26.6,65,29.71,10.0,South,15.0,-,N/A,,Mostly Cloudy,170,2012-12-06 06:33:00
12:53 AM,37.4,26.6,65,29.71,10.0,South,15.0,20.7,N/A,,Mostly Cloudy,180,2012-12-06 06:53:00
1:14 AM,39.2,26.6,61,29.73,10.0,SSW,5.8,-,N/A,,Overcast,200,2012-12-06 07:14:00
1:33 AM,37.4,26.6,65,29.72,10.0,South,8.1,-,N/A,,Mostly Cloudy,190,2012-12-06 07:33:00
1:53 AM,37.4,28.4,70,29.71,10.0,South,11.5,-,N/A,Rain,Light Rain,170,2012-12-06 07:53:00
2:14 AM,37.4,28.4,70,29.70,10.0,SSE,9.2,-,N/A,,Light Drizzle,160,2012-12-06 08:14:00
2:33 AM,37.4,30.2,75,29.70,10.0,SSE,12.7,-,N/A,,Light Drizzle,160,2012-12-06 08:33:00
2:53 AM,37.4,30.2,75,29.71,10.0,South,6.9,-,N/A,,Overcast,180,2012-12-06 08:53:00
3:14 AM,37.4,30.2,75,29.70,10.0,South,9.2,-,N/A,,Overcast,180,2012-12-06 09:14:00
3:33 AM,37.4,30.2,75,29.70,10.0,South,8.1,-,N/A,,Overcast,180,2012-12-06 09:33:00
3:53 AM,37.4,30.2,75,29.69,10.0,South,6.9,-,N/A,,Overcast,180,2012-12-06 09:53:00
4:14 AM,35.6,28.4,75,29.70,10.0,SSW,4.6,-,N/A,,Mostly Cloudy,210,2012-12-06 10:14:00
4:33 AM,35.6,28.4,75,29.70,10.0,SSW,5.8,-,N/A,,Scattered Clouds,200,2012-12-06 10:33:00
4:54 AM,35.6,28.4,75,29.71,10.0,SSW,4.6,-,N/A,,Clear,210,2012-12-06 10:54:00
5:13 AM,35.6,28.4,75,29.71,10.0,WSW,6.9,-,N/A,,Clear,240,2012-12-06 11:13:00
5:33 AM,35.6,28.4,75,29.71,10.0,WSW,6.9,-,N/A,,Clear,250,2012-12-06 11:33:00
5:54 AM,33.8,28.4,81,29.71,10.0,West,5.8,-,N/A,,Clear,260,2012-12-06 11:54:00
6:13 AM,33.8,28.4,81,29.72,10.0,West,11.5,-,N/A,,Clear,270,2012-12-06 12:13:00
6:33 AM,33.8,28.4,81,29.72,10.0,WNW,12.7,19.6,N/A,,Clear,290,2012-12-06 12:33:00
6:53 AM,33.8,28.4,81,29.73,10.0,WNW,13.8,-,N/A,,Clear,290,2012-12-06 12:53:00
7:14 AM,32.0,28.4,87,29.74,10.0,WNW,9.2,-,N/A,,Mostly Cloudy,290,2012-12-06 13:14:00
7:33 AM,32.0,28.4,87,29.75,10.0,West,12.7,-,N/A,,Overcast,280,2012-12-06 13:33:00
7:53 AM,33.8,28.4,81,29.75,10.0,WNW,19.6,23.0,N/A,,Overcast,290,2012-12-06 13:53:00
8:14 AM,32.0,26.6,80,29.76,10.0,West,17.3,23.0,N/A,,Overcast,280,2012-12-06 14:14:00
8:33 AM,32.0,26.6,80,29.78,10.0,WNW,16.1,21.9,N/A,,Overcast,290,2012-12-06 14:33:00
8:53 AM,30.2,24.8,80,29.79,10.0,WNW,16.1,24.2,N/A,,Overcast,290,2012-12-06 14:53:00
9:14 AM,30.2,24.8,80,29.79,10.0,NW,16.1,23.0,N/A,,Overcast,310,2012-12-06 15:14:00
9:33 AM,30.2,24.8,80,29.79,10.0,WNW,9.2,12.7,N/A,,Overcast,290,2012-12-06 15:33:00
9:53 AM,30.2,24.8,80,29.80,10.0,West,13.8,18.4,N/A,,Overcast,280,2012-12-06 15:53:00
10:14 AM,30.2,24.8,80,29.81,10.0,WNW,15.0,19.6,N/A,,Mostly Cloudy,300,2012-12-06 16:14:00
10:33 AM,30.2,24.8,80,29.82,10.0,WNW,17.3,26.5,N/A,,Overcast,300,2012-12-06 16:33:00
10:53 AM,30.2,24.8,80,29.82,10.0,NW,19.6,24.2,N/A,,Overcast,310,2012-12-06 16:53:00
11:14 AM,30.2,23.0,75,29.83,10.0,WNW,19.6,-,N/A,,Overcast,300,2012-12-06 17:14:00
11:33 AM,30.2,24.8,80,29.82,10.0,WNW,16.1,-,N/A,,Mostly Cloudy,300,2012-12-06 17:33:00
11:54 AM,30.2,24.8,80,29.83,10.0,WNW,13.8,24.2,N/A,,Overcast,300,2012-12-06 17:54:00
12:14 PM,30.2,23.0,75,29.83,10.0,WNW,16.1,-,N/A,,Overcast,300,2012-12-06 18:14:00
12:33 PM,30.2,24.8,80,29.84,10.0,NW,11.5,-,N/A,,Overcast,310,2012-12-06 18:33:00
12:54 PM,30.2,24.8,80,29.84,10.0,NW,15.0,-,N/A,,Overcast,310,2012-12-06 18:54:00
1:14 PM,30.2,23.0,75,29.85,10.0,WNW,15.0,-,N/A,,Overcast,300,2012-12-06 19:14:00
1:33 PM,28.4,23.0,80,29.86,10.0,WNW,15.0,19.6,N/A,,Overcast,290,2012-12-06 19:33:00
1:54 PM,28.4,23.0,80,29.86,10.0,West,15.0,19.6,N/A,,Overcast,280,2012-12-06 19:54:00
2:13 PM,28.4,21.2,74,29.86,10.0,WNW,16.1,-,N/A,,Overcast,300,2012-12-06 20:13:00
2:34 PM,28.4,23.0,80,29.87,10.0,WNW,15.0,-,N/A,,Overcast,290,2012-12-06 20:34:00
2:54 PM,28.4,23.0,80,29.88,10.0,WNW,13.8,-,N/A,,Overcast,300,2012-12-06 20:54:00
3:13 PM,28.4,21.2,74,29.89,10.0,WNW,11.5,-,N/A,,Overcast,290,2012-12-06 21:13:00
3:34 PM,28.4,21.2,74,29.90,10.0,West,16.1,-,N/A,,Overcast,280,2012-12-06 21:34:00
3:54 PM,26.6,21.2,80,29.90,10.0,WNW,10.4,20.7,N/A,,Overcast,300,2012-12-06 21:54:00
4:13 PM,26.6,19.4,74,29.91,10.0,WNW,12.7,-,N/A,,Mostly Cloudy,300,2012-12-06 22:13:00
4:34 PM,24.8,19.4,80,29.91,10.0,WNW,12.7,-,N/A,,Scattered Clouds,300,2012-12-06 22:34:00
4:54 PM,24.8,19.4,80,29.92,10.0,WNW,9.2,-,N/A,,Scattered Clouds,300,2012-12-06 22:54:00
5:13 PM,24.8,19.4,80,29.93,10.0,West,13.8,18.4,N/A,,Scattered Clouds,280,2012-12-06 23:13:00
5:34 PM,23.0,19.4,86,29.94,10.0,WNW,10.4,-,N/A,,Clear,290,2012-12-06 23:34:00
5:54 PM,21.2,17.6,86,29.94,10.0,WNW,5.8,-,N/A,,Clear,290,2012-12-06 23:54:00
6:13 PM,21.2,17.6,86,29.94,10.0,WNW,6.9,-,N/A,,Clear,290,2012-12-07 00:13:00
6:34 PM,19.4,17.6,93,29.94,10.0,WNW,5.8,-,N/A,,Clear,290,2012-12-07 00:34:00
6:54 PM,19.4,17.6,93,29.95,10.0,WNW,5.8,-,N/A,,Clear,290,2012-12-07 00:54:00
7:13 PM,17.6,15.8,93,29.96,10.0,West,5.8,-,N/A,,Clear,270,2012-12-07 01:13:00
7:34 PM,17.6,17.6,100,29.95,10.0,West,3.5,-,N/A,,Clear,270,2012-12-07 01:34:00
7:54 PM,17.6,17.6,100,29.94,10.0,Calm,Calm,-,N/A,,Clear,0,2012-12-07 01:54:00
8:34 PM,15.8,14.0,93,29.94,10.0,West,4.6,-,N/A,,Clear,270,2012-12-07 02:34:00
8:53 PM,17.6,15.8,93,29.96,10.0,WSW,4.6,-,N/A,,Clear,250,2012-12-07 02:53:00
9:13 PM,17.6,15.8,93,29.97,10.0,West,5.8,-,N/A,,Scattered Clouds,280,2012-12-07 03:13:00
9:33 PM,19.4,17.6,93,29.97,10.0,WNW,4.6,-,N/A,,Overcast,290,2012-12-07 03:33:00
9:53 PM,19.4,17.6,93,29.97,10.0,WNW,6.9,-,N/A,,Mostly Cloudy,290,2012-12-07 03:53:00
10:14 PM,19.4,17.6,93,29.98,10.0,WNW,5.8,-,N/A,,Scattered Clouds,290,2012-12-07 04:14:00
10:33 PM,21.2,19.4,93,29.97,10.0,WNW,4.6,-,N/A,,Mostly Cloudy,300,2012-12-07 04:33:00
10:53 PM,19.4,17.6,93,29.98,10.0,NW,4.6,-,N/A,,Mostly Cloudy,310,2012-12-07 04:53:00
11:14 PM,19.4,17.6,93,29.97,10.0,NNW,3.5,-,N/A,,Clear,330,2012-12-07 05:14:00
11:33 PM,19.4,17.6,93,29.97,10.0,NNW,4.6,-,N/A,,Clear,330,2012-12-07 05:33:00
11:53 PM,19.4,17.6,93,29.96,10.0,Calm,Calm,-,N/A,,Clear,0,2012-12-07 05:53:00